Flag for U.S.A. Weather past 2 weeks in Redmond, Washington, U.S.A.

Now
49 °F

Partly sunny.


Feels Like: 45 °F
Forecast: 44 / 56 °F
Wind: 8 mph from South

Location: Seattle Boeing Field


UV Index: 3 (Moderate)

Visibility: 10 mi


Pressure: 30.10 "Hg

Humidity: 69%

Dew point: 39 °F

Location of RedmondLocation

Historic Weather in Redmond

°F

Redmond temperature yesterday

Maximum temperature yesterday: 56 °F (at 11:53 AM)
Minimum temperature yesterday: 49 °F (at 9:53 PM)
Average temperature yesterday: 53 °F

Past Weeks' High & Low Weather Summary

 TemperatureHumidityPressure
High72 °F (Apr 7, 3:53 PM)89% (Apr 17, 12:53 AM)30.31 "Hg (Apr 17, 12:53 AM)
Low42 °F (Apr 14, 6:53 AM)18% (Apr 13, 4:53 PM)29.73 "Hg (Apr 17, 7:53 PM)
Average54 °F66%30.10 "Hg
* Reported Apr 3 7:53 AM — Apr 18 7:53 AM, Redmond, Weather by CustomWeather, © 2014

Note: Actual official high and low records may vary slightly from our data, if they occured in-between our weather recording intervals... More about our weather records

Advertising

Historic Weather Conditions — Data for Previous 24 hours

 ConditionsComfort  
Time TempWeatherWind HumidityBarometerVisibility
7:53 AM
Apr 18
46 °FScattered clouds.6 mph73%30.08 "Hg10 mi
6:53 AM45 °FPassing clouds.8 mph74%30.06 "Hg10 mi
5:53 AM44 °FPassing clouds.7 mph76%30.04 "Hg10 mi
4:53 AM45 °FPassing clouds.9 mph76%30.01 "Hg10 mi
4:00 AM46 °FMostly cloudy.5 mph76%30.00 "Hg10 mi
2:53 AM47 °FMostly cloudy.6 mph74%29.97 "Hg10 mi
1:53 AM47 °FPassing clouds.6 mph74%29.96 "Hg10 mi
12:53 AM48 °FMostly cloudy.6 mph74%29.93 "Hg10 mi
11:53 PM
Apr 17
49 °FOvercast.5 mph74%29.90 "Hg10 mi
10:53 PM49 °FOvercast.8 mph77%29.88 "Hg10 mi
9:53 PM49 °FPassing clouds.8 mph80%29.85 "Hg10 mi
8:53 PM51 °FOvercast.8 mph80%29.80 "Hg10 mi
7:53 PM51 °FLight rain. Mostly cloudy.5 mph80%29.73 "Hg8 mi
6:53 PM53 °FLight rain. Mostly cloudy.12 mph86%29.74 "Hg8 mi
5:53 PM53 °FLight rain. Cloudy.12 mph83%29.76 "Hg6 mi
4:53 PM54 °FLight rain. Mostly cloudy.12 mph83%29.77 "Hg10 mi
3:53 PM55 °FLight rain. More clouds than sun.14 mph74%29.79 "Hg10 mi
2:53 PM56 °FLight rain. Cloudy.12 mph77%29.79 "Hg10 mi
1:53 PM55 °FLight rain. Cloudy.10 mph80%29.80 "Hg10 mi
12:53 PM55 °FLight rain. Overcast.5 mph80%29.82 "Hg10 mi
11:53 AM56 °FLight rain. Mostly cloudy.8 mph81%29.82 "Hg10 mi
10:53 AM55 °FLight rain. Cloudy.14 mph83%29.83 "Hg10 mi
10:02 AM55 °FLight rain. Cloudy.9 mph82%29.84 "Hg10 mi
Weather by CustomWeather, © 2014

See weather overview